STARLINK-37005, 68107

Orbit data source: Space-Track

STARLINK-37005, 68107 is a payload satellite owned by SpaceX/Seattle (US) in SSO that was launched on Sun, 08 Mar 2026 UTC via an FALCON 9 launch vehicle from the Air Force Western Test Range (AFWTR). Payload-class satellites include a variety of spacecraft equipped with specific instruments for various scientific and technological missions. These include communications satellites like Starlink; space stations such as the ISS; scientific satellites like the Hubble; Earth observation satellites from companies like Planet Labs, Umbra, and HawkEye 360; GPS; miniature CubeSats for education and research; and military/defense satellites.

Loading next visibility...
Identifier
68107, 2026-044G
Orbit
SSO
Country
Flag of USUS
Related business
Manufacturer
SpaceX/Seattle
Mission
Operational Commercial Communications
Bus & Motor
STARLINK V2MO, Unknown motor
Mass
575 kg wet, ~530 kg dry
Launch date (UTC)
2026-03-08 (6 months ago)
Launch vehicle
FALCON 9
Launch site
Air Force Western Test Range (AFWTR)
Object type
Payload
Rocket body
Debris
Shape & HBR
Box + 1 Pan, 17.7 m
Radar Cross Section
41.120 m², Large (>1 m²)

Expand to show TLE details & history
Last TLE update: 13 hours ago

TLE from 13 hours ago
0 STARLINK-37005
1 68107U 26044G   26246.85897387  .00036372  00000-0  11240-2 0  9994
2 68107  97.2822 205.9798 0000987  50.1282 310.0047 15.33432040 28882
Epoch: 2026-09-03T20:36Z
TLE epoch observation values (Epoch: 2026-09-03T20:36:55.342Z)
Latitude
-0.00006°
Longitude
-86.24189°
Altitude
468.26 km
Speed
7.632 km/s
True Right ascension
13h 43m 55s
True Declination
0° 00' 00"
Sunlit
Object was in daylight at epoch
Visualization orbit readout
Latitude
Unknown
Longitude
Unknown
Altitude
Unknown
Speed
Unknown
Apparent Right ascension
Unknown
Apparent Declination
Unknown
Sunlit
N/A
Visualization observer readout
Local Sidereal Time
01:44:02
Azimuth
Unknown
Elevation
Unknown
Doppler factor
Unknown
Orbital elements
Apogee altitude
463.2 km
Perigee altitude
461.849 km
Semi-major axis
6,840.661 km
Eccentricity
0.0001
Inclination
97.2822°
RAAN
205.9798°
Arg. of periapsis
50.1282°
True anomaly
309.99604°
Mean anomaly
310.0047°
Eccentric anomaly
310.00037°
Mean motion
3.83615 °/min
Orbital period
93.84 mins
BSTAR
0.001124
Loading maneuver chart data...
Computing Atmospheric mass density...
Loading historical data...
Loading historical data...
Loading historical data...
Loading historical data...
Loading historical data...
Loading historical data...
Loading historical data...

Documentation

Showing up to 5 results
|